Temp
-6 -6 -6 -7 -6 -7 -8 -7 -7 -5 -6 -6 -6 -6 -6 -6 -5 -5 -5 -4 -4 -5 -5 -5 -5 -5 -5 -6 -6 -5 -5 -5 -6 -6 -6 -6 -6 -6 -6 -6 -6 -6 -6 -6 -6 -6 -6 -6 -6
-6 -6 -6 -7 -7 -6 -6 -7 -6 -6 -5 -6 -6 -5 -6 -6 -5 -5 -5 -5 -4 -5 -5 -5 -5 -5 -6 -5 -6 -6 -6 -6 -6 -6 -6 -6 -6 -6 -6 -6 -6 -6 -6 -6 -6 -6 -6 -6 -6
-6 -5 -5 -6 -7 -7 -7 -7 -6 -5 -5 -5 -5 -5 -5 -6 -5 -5 -4 -4 -5 -5 -5 -5 -5 -5 -5 -6 -5 -5 -6 -6 -6 -6 -6 -6 -6 -6 -6 -6 -6 -6 -6 -6 -6 -6 -7 -6 -6
-6 -5 -6 -7 -7 -7 -6 -7 -5 -5 -4 -5 -5 -4 -5 -5 -5 -5 -4 -5 -6 -6 -6 -5 -5 -5 -5 -6 -5 -6 -6 -7 -7 -6 -6 -6 -6 -6 -6 -6 -6 -6 -6 -6 -7 -7 -7 -7 -7
-5 -5 -7 -9 -7 -6 -6 -6 -4 -5 -5 -5 -4 -4 -4 -5 -5 -5 -5 -5 -5 -6 -5 -5 -5 -5 -6 -6 -6 -6 -6 -7 -7 -5 -6 -6 -6 -6 -6 -6 -6 -6 -6 -7 -7 -7 -7 -7 -7
-5 -5 -7 -6 -7 -6 -6 -7 -5 -4 -4 -4 -4 -4 -4 -4 -4 -5 -5 -5 -5 -5 -5 -5 -5 -5 -5 -6 -6 -6 -6 -6 -6 -6 -6 -6 -6 -6 -6 -6 -6 -7 -7 -7 -7 -7 -7 -7 -7
-4 -5 -6 -6 -6 -7 -7 -5 -5 -5 -4 -4 -4 -4 -4 -4 -4 -5 -5 -4 -5 -5 -5 -5 -5 -5 -5 -6 -6 -6 -6 -6 -5 -6 -6 -6 -6 -6 -6 -6 -6 -7 -7 -7 -7 -7 -7 -7 -7
-4 -5 -7 -5 -6 -5 -6 -5 -4 -4 -4 -4 -4 -4 -4 -4 -4 -5 -5 -5 -5 -5 -5 -5 -6 -6 -5 -5 -5 -6 -6 -6 -5 -6 -6 -6 -6 -6 -6 -6 -7 -7 -7 -7 -7 -7 -7 -7 -7
-5 -4 -6 -5 -5 -4 -5 -6 -4 -3 -4 -4 -4 -4 -4 -4 -4 -4 -5 -5 -5 -4 -5 -5 -6 -5 -5 -5 -6 -6 -7 -6 -5 -5 -5 -6 -6 -6 -6 -6 -7 -7 -7 -7 -7 -7 -7 -7 -7
-4 -4 -5 -5 -5 -5 -4 -4 -3 -4 -4 -4 -4 -4 -4 -4 -4 -4 -4 -4 -4 -5 -5 -5 -5 -5 -5 -5 -5 -5 -5 -5 -5 -5 -6 -5 -6 -6 -6 -7 -7 -7 -7 -8 -7 -8 -7 -7 -7
-4 -4 -5 -5 -5 -5 -4 -3 -3 -3 -3 -3 -4 -4 -4 -4 -4 -4 -4 -4 -4 -5 -5 -5 -5 -5 -5 -5 -5 -5 -5 -5 -5 -5 -5 -5 -6 -6 -7 -7 -7 -7 -7 -7 -7 -7 -7 -7 -7
-3 -4 -5 -5 -5 -5 -5 -4 -4 -3 -3 -3 -3 -3 -3 -4 -4 -4 -4 -4 -4 -5 -5 -5 -5 -5 -5 -5 -6 -5 -5 -5 -5 -5 -5 -5 -6 -6 -7 -6 -7 -7 -7 -7 -7 -7 -7 -7 -8
-3 -4 -4 -5 -5 -5 -5 -4 -4 -4 -4 -3 -3 -3 -3 -3 -4 -4 -4 -4 -4 -5 -5 -5 -5 -5 -5 -5 -5 -5 -5 -5 -4 -5 -5 -5 -6 -6 -7 -7 -7 -7 -7 -7 -7 -8 -8 -6 -6
-4 -4 -4 -4 -5 -5 -4 -4 -4 -4 -4 -4 -3 -3 -3 -3 -3 -3 -4 -4 -4 -5 -4 -4 -4 -5 -5 -5 -5 -5 -5 -4 -4 -5 -5 -5 -6 -6 -6 -6 -7 -7 -7 -7 -7 -7 -7 -7 -6
-4 -4 -4 -5 -5 -4 -4 -4 -5 -4 -4 -4 -4 -4 -3 -3 -4 -4 -4 -4 -4 -5 -4 -5 -4 -5 -4 -4 -5 -5 -4 -4 -4 -4 -5 -5 -5 -6 -6 -6 -6 -7 -7 -7 -7 -7 -7 -7 -6
-4 -4 -4 -4 -5 -4 -4 -4 -4 -4 -3 -4 -4 -4 -4 -4 -3 -4 -4 -4 -3 -4 -4 -4 -4 -4 -4 -4 -4 -4 -4 -4 -4 -4 -5 -5 -5 -6 -6 -6 -6 -6 -6 -7 -7 -8 -7 -7 -7
-5 -5 -5 -4 -5 -4 -4 -4 -3 -4 -4 -4 -3 -4 -4 -4 -3 -4 -4 -4 -4 -4 -4 -4 -4 -4 -4 -4 -4 -4 -5 -4 -4 -4 -4 -5 -5 -5 -6 -6 -6 -6 -6 -7 -7 -7 -6 -7 -7
-6 -5 -4 -6 -4 -5 -4 -3 -3 -4 -5 -4 -4 -3 -3 -3 -3 -3 -4 -4 -4 -4 -4 -4 -4 -4 -4 -4 -4 -4 -5 -4 -4 -4 -4 -4 -5 -5 -5 -5 -5 -6 -6 -7 -7 -7 -6 -6 -6
-7 -6 -6 -5 -5 -4 -3 -3 -4 -4 -3 -4 -4 -4 -4 -3 -3 -3 -3 -4 -4 -4 -4 -4 -4 -4 -4 -4 -4 -4 -5 -4 -4 -4 -4 -4 -5 -5 -5 -5 -5 -5 -6 -7 -7 -6 -6 -6 -7
-7 -6 -7 -6 -5 -5 -5 -4 -3 -5 -4 -4 -5 -4 -4 -4 -4 -4 -4 -4 -4 -4 -4 -4 -4 -4 -4 -4 -4 -4 -4 -5 -4 -4 -4 -4 -4 -5 -5 -5 -5 -5 -6 -5 -5 -5 -6 -6 -6
-6 -6 -6 -6 -3 -6 -5 -6 -6 -5 -5 -4 -5 -4 -4 -4 -5 -4 -4 -4 -4 -4 -4 -4 -4 -4 -4 -4 -4 -4 -4 -5 -5 -4 -4 -4 -4 -4 -5 -5 -5 -5 -5 -5 -5 -5 -6 -7 -7
-4 -3 -4 -6 -5 -5 -5 -5 -6 -5 -4 -5 -4 -4 -5 -4 -5 -6 -5 -5 -5 -5 -5 -5 -4 -5 -5 -4 -4 -4 -4 -5 -4 -4 -4 -4 -4 -4 -5 -5 -5 -5 -5 -5 -5 -5 -6 -6 -7
-4 -4 -5 -5 -5 -5 -5 -5 -6 -7 -6 -6 -4 -4 -5 -4 -5 -5 -5 -6 -6 -5 -5 -5 -5 -5 -5 -5 -5 -4 -4 -4 -4 -4 -4 -4 -4 -4 -4 -4 -5 -5 -5 -5 -5 -5 -5 -5 -6
-5 -5 -5 -5 -5 -5 -5 -5 -6 -6 -8 -7 -5 -4 -4 -6 -5 -6 -5 -5 -6 -6 -5 -5 -5 -5 -5 -5 -5 -5 -4 -4 -4 -4 -4 -4 -5 -5 -5 -4 -4 -4 -4 -5 -5 -5 -5 -5 -5
-5 -5 -5 -6 -5 -5 -6 -6 -7 -7 -6 -6 -6 -5 -5 -6 -6 -5 -6 -7 -5 -6 -6 -6 -5 -6 -5 -5 -5 -5 -5 -4 -4 -4 -4 -4 -4 -5 -5 -5 -5 -5 -5 -5 -5 -5 -5 -6 -6
-6 -6 -6 -6 -6 -7 -6 -7 -7 -7 -7 -6 -6 -6 -6 -6 -6 -6 -5 -5 -4 -6 -5 -6 -6 -5 -5 -5 -5 -5 -5 -5 -5 -4 -4 -4 -4 -4 -4 -5 -5 -5 -5 -5 -5 -5 -5 -5 -5
-7 -6 -6 -7 -7 -7 -7 -7 -8 -8 -7 -7 -7 -7 -6 -7 -7 -7 -6 -5 -5 -5 -6 -6 -6 -8 -6 -5 -5 -4 -5 -5 -5 -5 -4 -4 -4 -5 -5 -5 -5 -5 -5 -5 -5 -5 -5 -5 -6
-7 -7 -7 -7 -7 -7 -8 -8 -8 -8 -8 -7 -7 -7 -7 -7 -8 -8 -8 -7 -6 -5 -6 -6 -7 -7 -7 -6 -6 -5 -5 -5 -5 -5 -5 -5 -4 -4 -4 -5 -5 -5 -5 -5 -5 -5 -5 -5 -6
-8 -8 -7 -7 -7 -7 -8 -9 -9 -9 -9 -8 -8 -8 -8 -8 -8 -8 -8 -9 -8 -8 -7 -7 -6 -5 -6 -6 -7 -6 -6 -5 -5 -5 -5 -5 -5 -5 -4 -4 -5 -5 -5 -5 -5 -5 -5 -5 -6
-8 -8 -8 -8 -8 -8 -8 -10 -10 -10 -10 -10 -10 -9 -9 -8 -8 -7 -7 -7 -8 -8 -8 -7 -6 -5 -5 -6 -6 -6 -6 -6 -6 -5 -5 -5 -5 -5 -5 -4 -5 -5 -5 -5 -5 -5 -5 -5 -5
Height
5886 5885 5884 5882 5886 5880 5881 5883 5882 5884 5887 5886 5887 5888 5891 5893 5894 5897 5897 5897 5899 5903 5905 5907 5910 5911 5914 5915 5915 5916 5916 5916 5917 5919 5919 5919 5920 5921 5922 5922 5923 5924 5923 5922 5921 5921 5920 5919 5919
5890 5888 5889 5888 5885 5887 5885 5886 5883 5883 5885 5886 5889 5891 5894 5896 5896 5899 5901 5903 5902 5905 5907 5909 5911 5914 5916 5917 5918 5918 5918 5919 5921 5922 5922 5923 5924 5925 5925 5926 5926 5926 5925 5924 5924 5924 5923 5922 5923
5892 5890 5890 5888 5889 5888 5889 5888 5887 5888 5889 5891 5893 5895 5896 5898 5900 5902 5905 5905 5905 5908 5910 5912 5914 5915 5917 5918 5920 5920 5921 5922 5923 5924 5925 5927 5928 5928 5929 5928 5928 5928 5927 5927 5926 5926 5926 5926 5926
5897 5894 5895 5890 5893 5893 5893 5892 5891 5890 5890 5893 5895 5898 5900 5901 5903 5906 5908 5907 5910 5912 5912 5914 5916 5917 5918 5919 5921 5921 5923 5924 5926 5927 5927 5930 5930 5931 5931 5931 5930 5929 5928 5928 5928 5929 5929 5930 5930
5901 5902 5897 5895 5894 5895 5895 5895 5896 5896 5895 5895 5897 5899 5902 5903 5905 5909 5910 5912 5913 5914 5916 5918 5918 5918 5919 5919 5920 5923 5924 5925 5927 5928 5931 5932 5932 5933 5933 5933 5933 5931 5930 5930 5930 5931 5932 5933 5934
5902 5902 5901 5899 5898 5896 5896 5897 5895 5897 5898 5899 5899 5901 5904 5906 5907 5911 5912 5914 5915 5915 5918 5919 5919 5919 5920 5921 5922 5924 5926 5927 5929 5931 5933 5933 5934 5934 5935 5935 5934 5934 5932 5933 5933 5935 5936 5936 5937
5904 5902 5903 5905 5903 5900 5900 5899 5898 5901 5900 5903 5903 5904 5906 5908 5910 5914 5914 5916 5918 5918 5919 5919 5919 5919 5921 5921 5923 5924 5927 5929 5932 5935 5937 5937 5937 5937 5937 5937 5937 5937 5936 5936 5937 5939 5939 5940 5940
5904 5906 5904 5908 5906 5904 5902 5902 5901 5903 5903 5904 5905 5905 5907 5909 5912 5914 5915 5918 5918 5919 5919 5919 5920 5921 5922 5921 5922 5926 5929 5931 5935 5937 5938 5938 5939 5939 5940 5941 5941 5939 5940 5941 5942 5943 5943 5943 5944
5898 5908 5908 5910 5910 5908 5906 5905 5904 5905 5908 5907 5908 5909 5909 5911 5913 5915 5917 5918 5920 5919 5918 5922 5924 5924 5923 5922 5923 5928 5932 5935 5938 5940 5940 5941 5942 5942 5943 5944 5944 5942 5944 5945 5946 5947 5946 5947 5947
5912 5913 5912 5913 5912 5911 5910 5909 5907 5909 5909 5912 5912 5913 5913 5915 5917 5918 5921 5921 5921 5922 5923 5926 5928 5929 5928 5929 5931 5934 5935 5938 5940 5942 5943 5944 5945 5946 5946 5947 5947 5946 5948 5948 5949 5949 5950 5951 5949
5915 5917 5916 5916 5917 5915 5914 5912 5912 5914 5914 5914 5917 5916 5917 5918 5918 5920 5922 5923 5924 5926 5927 5928 5931 5932 5933 5934 5937 5939 5940 5941 5943 5944 5946 5947 5948 5949 5948 5949 5949 5950 5951 5952 5952 5952 5953 5953 5954
5918 5920 5919 5921 5921 5916 5916 5915 5913 5914 5916 5916 5916 5917 5917 5918 5919 5921 5923 5925 5928 5927 5928 5930 5933 5935 5936 5938 5939 5941 5942 5944 5946 5947 5949 5951 5951 5952 5952 5953 5953 5955 5956 5955 5955 5955 5957 5955 5957
5919 5920 5922 5922 5921 5920 5919 5920 5918 5917 5917 5918 5919 5919 5919 5919 5920 5922 5924 5926 5928 5930 5930 5932 5934 5936 5938 5940 5942 5943 5945 5947 5948 5950 5952 5953 5954 5955 5955 5956 5956 5957 5958 5959 5957 5957 5960 5960 5958
5921 5921 5924 5923 5923 5922 5921 5920 5921 5921 5921 5920 5920 5921 5921 5922 5922 5922 5923 5925 5929 5930 5931 5933 5936 5937 5939 5941 5944 5946 5948 5949 5951 5952 5953 5955 5955 5956 5957 5958 5957 5958 5961 5961 5960 5959 5960 5962 5961
5920 5924 5925 5924 5922 5924 5923 5923 5923 5922 5921 5922 5922 5922 5923 5923 5923 5923 5925 5926 5928 5931 5933 5935 5937 5939 5940 5942 5945 5947 5950 5951 5953 5954 5955 5956 5957 5958 5958 5959 5959 5961 5962 5963 5963 5963 5963 5964 5964
5920 5921 5925 5925 5922 5925 5926 5925 5925 5923 5923 5923 5924 5924 5924 5924 5925 5925 5925 5926 5929 5931 5934 5934 5936 5939 5941 5943 5945 5948 5950 5952 5954 5956 5957 5958 5959 5960 5960 5960 5961 5962 5963 5965 5966 5966 5966 5967 5967
5920 5917 5923 5926 5924 5926 5928 5927 5926 5924 5923 5923 5925 5925 5925 5926 5927 5928 5929 5929 5930 5931 5933 5936 5938 5939 5941 5944 5946 5948 5950 5952 5954 5957 5958 5960 5961 5961 5962 5962 5963 5964 5965 5966 5967 5966 5966 5968 5969
5921 5917 5920 5923 5924 5926 5926 5927 5924 5924 5925 5926 5926 5926 5926 5927 5928 5929 5931 5932 5933 5933 5935 5937 5938 5940 5942 5945 5946 5948 5951 5952 5954 5957 5959 5960 5962 5963 5963 5963 5964 5965 5966 5967 5968 5968 5968 5969 5969
5920 5921 5921 5922 5922 5923 5924 5925 5926 5923 5926 5927 5928 5929 5929 5929 5929 5930 5931 5933 5934 5936 5935 5938 5938 5941 5943 5944 5947 5948 5950 5952 5954 5956 5959 5960 5962 5964 5965 5965 5967 5968 5968 5968 5969 5969 5970 5971 5972
5920 5923 5919 5918 5922 5923 5923 5923 5924 5926 5926 5928 5928 5929 5929 5930 5930 5930 5931 5933 5934 5935 5938 5938 5939 5940 5942 5944 5945 5947 5949 5951 5953 5956 5958 5960 5962 5964 5965 5967 5968 5969 5969 5969 5971 5971 5972 5972 5973
5917 5917 5919 5916 5917 5921 5921 5923 5922 5925 5926 5926 5928 5929 5928 5928 5929 5930 5931 5932 5934 5935 5936 5938 5939 5940 5942 5943 5944 5945 5947 5949 5951 5954 5955 5958 5961 5963 5965 5966 5967 5969 5969 5970 5971 5972 5973 5973 5973
5912 5913 5914 5916 5915 5921 5918 5921 5920 5922 5924 5925 5924 5925 5925 5926 5926 5927 5930 5933 5934 5935 5935 5937 5940 5940 5941 5942 5943 5944 5946 5947 5948 5951 5953 5957 5959 5961 5963 5964 5966 5967 5968 5969 5970 5971 5973 5973 5973
5911 5916 5918 5917 5917 5917 5918 5919 5919 5918 5919 5922 5920 5919 5922 5921 5923 5925 5922 5930 5932 5933 5934 5935 5937 5940 5941 5941 5941 5943 5944 5945 5946 5949 5952 5955 5958 5960 5961 5963 5964 5965 5967 5968 5969 5970 5970 5972 5972
5908 5910 5913 5913 5914 5917 5917 5916 5915 5912 5916 5918 5918 5918 5920 5913 5916 5916 5923 5922 5924 5929 5930 5931 5933 5935 5939 5940 5940 5940 5941 5943 5944 5947 5950 5952 5955 5957 5959 5961 5962 5964 5965 5966 5967 5968 5968 5968 5968
5903 5905 5908 5911 5912 5912 5914 5914 5912 5912 5912 5911 5915 5915 5913 5912 5914 5916 5912 5922 5929 5927 5927 5927 5929 5929 5933 5936 5937 5939 5939 5941 5942 5944 5947 5950 5951 5954 5955 5957 5959 5960 5962 5964 5965 5966 5966 5966 5966
5899 5901 5904 5903 5905 5911 5909 5909 5909 5913 5912 5914 5914 5914 5911 5911 5909 5912 5916 5920 5922 5919 5918 5927 5923 5923 5925 5928 5930 5932 5935 5938 5939 5941 5943 5945 5948 5950 5952 5954 5955 5956 5958 5960 5960 5961 5962 5962 5962
5897 5899 5903 5904 5907 5910 5910 5912 5909 5907 5906 5906 5908 5909 5909 5909 5905 5901 5905 5910 5913 5915 5917 5920 5913 5921 5921 5924 5923 5926 5927 5930 5933 5936 5938 5941 5943 5945 5946 5949 5951 5952 5953 5955 5956 5957 5956 5957 5957
5892 5895 5898 5899 5903 5908 5907 5905 5906 5901 5900 5900 5901 5904 5905 5906 5906 5904 5901 5901 5905 5908 5911 5914 5913 5917 5916 5920 5921 5921 5923 5923 5927 5929 5933 5935 5937 5939 5941 5942 5946 5947 5948 5949 5950 5951 5951 5952 5951
5888 5889 5892 5894 5897 5901 5901 5898 5900 5897 5894 5892 5892 5896 5899 5901 5903 5904 5905 5904 5905 5905 5905 5903 5902 5906 5913 5915 5915 5917 5917 5916 5918 5922 5925 5928 5930 5932 5935 5937 5937 5939 5942 5942 5944 5944 5945 5945 5945
5880 5881 5884 5887 5891 5893 5896 5895 5894 5887 5881 5877 5877 5882 5884 5884 5887 5892 5897 5902 5903 5902 5900 5897 5895 5896 5902 5908 5908 5909 5910 5911 5911 5914 5914 5918 5921 5923 5925 5929 5931 5931 5933 5935 5937 5937 5937 5938 5938
Wind_Speed
25 18 28 24 21 26 19 16 11 17 17 14 21 15 17 14 16 21 20 25 27 26 21 19 20 17 15 13 14 14 16 15 19 18 19 21 23 24 24 23 21 18 17 17 18 17 20 21 21
20 24 22 23 21 15 22 17 15 15 18 18 12 14 15 14 19 17 18 23 24 22 20 18 17 14 14 12 12 14 13 17 19 18 20 22 22 22 21 19 17 15 17 19 19 21 22 22 21
18 25 15 23 15 18 19 16 15 17 16 16 14 13 15 16 15 17 18 19 21 19 18 16 13 12 11 11 11 13 14 16 18 19 20 21 21 20 18 17 16 17 17 20 22 23 24 24 23
17 18 13 21 17 16 19 16 15 10 14 15 15 16 18 20 17 15 14 16 18 18 16 15 12 11 10 12 12 15 15 16 20 24 19 20 20 17 15 15 15 16 20 21 23 25 25 26 26
16 15 19 13 24 17 19 12 24 17 15 14 17 15 16 17 18 16 15 17 17 17 15 13 12 11 10 10 11 15 14 17 20 22 20 20 18 15 14 14 15 18 21 22 25 25 24 24 25
17 18 18 14 17 20 17 15 19 18 18 16 18 16 14 19 15 17 13 15 13 12 12 11 10 9 9 9 11 15 17 28 23 21 20 19 16 15 13 15 17 19 22 24 25 24 23 23 24
16 24 15 15 17 13 14 13 13 18 18 19 18 15 13 16 15 16 13 13 13 11 10 8 9 9 9 10 11 18 20 23 19 20 19 17 15 14 16 16 17 20 22 23 23 22 22 21 22
10 17 15 16 15 16 17 15 14 16 17 17 17 18 14 12 14 16 13 12 10 8 7 9 11 14 12 8 13 20 16 16 26 21 17 16 13 15 15 15 18 21 22 22 22 21 20 21 22
28 22 15 18 16 18 18 17 11 14 15 17 16 16 18 14 12 13 13 10 10 9 11 13 18 22 25 24 19 21 26 22 23 18 15 14 14 13 14 15 18 22 23 23 21 20 19 20 22
16 18 19 20 17 18 16 11 10 11 13 15 14 12 14 11 11 12 12 8 10 13 15 20 20 20 19 19 26 31 23 22 21 16 13 13 13 11 15 18 21 22 22 21 21 20 17 16 22
14 13 17 17 19 18 17 18 20 12 11 12 11 11 10 10 8 10 9 10 9 11 11 14 16 14 14 13 16 19 18 22 18 14 11 10 12 13 16 19 21 20 20 17 19 19 18 19 18
11 9 13 15 16 17 17 16 18 17 12 10 9 7 8 7 7 8 7 9 11 7 8 10 11 11 11 9 10 14 20 20 16 13 11 11 12 13 15 16 19 18 16 17 17 18 12 22 20
8 8 11 11 12 14 15 12 12 14 15 12 9 6 6 7 5 4 7 7 8 9 7 8 7 9 10 10 10 13 19 18 15 13 11 12 11 13 15 16 19 16 14 14 15 17 10 12 21
8 6 7 6 9 11 11 9 9 9 11 11 12 10 8 6 5 5 5 7 9 7 7 6 8 8 10 12 11 13 18 18 14 12 11 11 11 11 12 15 17 16 12 12 11 16 13 11 16
3 9 4 5 7 8 8 5 11 6 8 9 10 12 11 9 7 3 4 7 9 7 8 8 7 9 8 11 11 13 15 14 14 11 10 10 9 10 13 15 12 12 12 9 11 11 14 11 11
7 3 7 10 9 9 7 11 9 8 7 7 8 9 8 9 10 10 4 3 7 6 7 6 7 9 8 10 11 10 13 15 13 10 9 9 8 8 10 11 12 12 11 10 11 11 9 11 11
17 8 7 1 4 4 4 5 6 9 7 6 5 6 7 7 8 10 8 3 3 6 4 5 7 9 7 9 9 9 10 16 15 12 8 8 8 8 8 8 10 10 10 11 11 11 9 10 9
6 6 9 7 4 2 5 3 4 7 7 5 5 5 6 8 8 9 9 7 0 4 6 7 5 8 9 8 9 9 10 13 17 14 10 8 8 8 8 7 8 11 11 11 12 10 9 8 10
10 6 10 11 8 10 7 5 1 3 2 5 8 9 9 7 6 7 7 8 6 0 5 9 9 6 8 10 10 10 10 12 17 16 13 10 9 9 9 5 5 6 10 12 10 9 7 7 8
14 11 9 15 11 4 3 6 1 5 6 0 3 6 8 8 8 5 4 4 5 5 3 5 9 8 9 9 10 11 10 10 15 18 16 11 10 10 11 8 6 5 8 7 4 3 3 2 4
18 21 18 20 14 7 7 4 9 6 10 10 6 7 7 4 7 8 5 3 3 3 3 4 7 8 8 10 11 11 12 11 14 20 20 15 12 12 12 12 10 7 6 4 4 2 1 2 4
17 19 20 21 21 11 17 9 8 10 11 14 13 8 13 15 11 8 6 6 4 3 3 2 6 9 9 9 11 13 14 15 17 21 22 17 14 13 13 14 13 13 10 7 7 5 5 5 7
19 12 10 13 15 17 15 12 4 14 14 14 23 22 16 14 16 22 12 4 5 6 6 4 5 7 8 10 10 12 13 16 20 20 22 18 15 14 13 12 15 14 13 14 12 12 12 9 12
19 17 14 15 15 11 7 10 9 17 18 19 17 20 23 14 22 18 16 11 12 8 10 11 9 8 9 11 12 12 12 13 18 21 22 20 19 16 14 11 10 9 9 12 13 14 16 14 17
21 20 15 14 8 4 3 6 9 16 22 29 25 28 20 29 30 19 13 8 18 14 9 12 15 13 13 12 14 17 16 13 17 20 22 22 21 19 18 15 12 10 9 9 11 11 13 14 17
15 13 15 15 11 8 2 17 18 21 27 30 33 35 37 34 35 30 33 29 17 21 8 13 21 20 19 17 18 17 18 19 18 20 23 25 24 23 21 19 17 15 14 12 14 16 17 18 19
13 14 10 8 16 16 7 10 17 21 26 30 33 35 37 40 41 41 37 31 27 23 20 27 27 11 20 23 23 22 21 20 21 24 24 25 26 27 27 25 23 21 20 19 18 19 20 19 20
15 15 12 14 18 23 7 12 17 23 31 36 39 38 37 38 40 39 44 42 34 29 26 30 33 21 22 27 25 27 27 25 24 22 26 28 27 29 29 30 28 27 26 24 24 22 23 21 22
19 19 19 19 18 21 19 7 11 19 28 35 38 39 39 39 41 39 40 34 36 39 35 35 38 34 28 22 30 30 30 30 30 29 27 28 31 33 32 31 32 31 30 29 27 27 26 24 23
22 22 25 23 21 22 22 9 18 26 30 36 38 38 45 49 51 47 41 34 28 32 41 42 43 41 36 31 30 32 30 34 33 33 31 33 31 31 34 33 34 35 35 33 30 28 28 27 26
Wind_Direction
58 73 71 73 76 63 62 63 94 76 86 90 120 112 97 110 123 118 117 130 139 138 136 133 130 126 126 122 113 108 113 116 110 108 109 110 110 109 109 105 101 97 91 85 80 77 77 74 70
88 74 76 67 66 103 79 75 71 63 84 82 78 107 94 113 113 120 128 138 136 137 137 135 132 129 130 125 122 110 113 124 119 111 111 114 112 114 110 105 99 94 86 86 85 81 76 74 74
61 101 68 84 56 72 74 78 79 82 70 98 97 94 120 121 117 128 136 135 130 134 136 133 138 143 142 132 132 113 112 127 123 118 116 118 120 115 111 99 89 86 87 87 84 81 80 78 75
55 79 89 82 91 72 84 61 83 58 92 96 98 100 108 117 117 126 131 127 133 132 132 132 140 147 148 138 150 128 112 134 128 124 129 131 121 114 103 94 91 94 90 87 85 84 82 81 78
98 73 73 66 87 95 85 90 76 77 74 77 93 101 111 111 114 122 128 134 140 142 140 141 147 156 158 138 113 147 110 123 136 133 135 128 120 110 96 93 96 94 92 91 89 85 84 85 83
96 66 59 115 80 57 68 72 64 74 77 86 89 91 102 111 109 112 123 131 132 132 141 156 154 158 158 148 130 153 118 130 131 131 137 129 118 106 100 103 100 97 96 93 93 93 91 90 90
86 97 70 58 69 85 78 66 62 78 68 77 89 101 101 107 113 116 118 121 126 134 133 145 150 138 134 138 149 145 136 130 140 139 135 121 113 108 103 102 100 102 98 98 99 98 95 90 90
51 106 66 60 63 57 66 59 62 75 74 65 72 79 88 104 106 103 100 113 114 117 124 121 123 124 106 132 151 145 149 147 144 139 132 120 108 103 103 105 109 102 100 98 95 95 94 90 86
63 70 53 52 50 64 58 52 58 65 85 82 71 71 74 72 82 88 92 94 92 69 109 116 116 106 110 96 121 137 135 128 141 135 129 114 104 102 109 109 109 103 101 98 96 93 91 95 92
57 62 58 53 42 46 47 53 92 83 69 70 75 73 77 75 75 82 98 108 91 94 107 120 122 112 113 107 108 130 126 135 140 137 121 108 110 111 117 115 108 108 106 106 101 92 86 95 96
61 48 55 53 41 36 46 45 75 86 84 81 82 80 85 93 68 67 82 91 95 116 116 125 126 111 129 120 120 139 140 142 140 127 120 119 125 131 117 118 117 116 117 111 102 95 96 90 89
71 56 56 56 47 49 27 46 46 60 67 73 76 68 76 70 83 88 78 87 105 110 137 132 127 122 121 127 119 134 145 148 138 140 138 133 125 118 118 118 119 119 119 117 113 96 94 102 88
70 64 68 57 41 27 32 37 44 50 56 58 60 73 82 91 85 87 115 105 101 114 141 133 138 129 127 130 138 145 154 155 155 148 136 125 120 122 130 129 122 127 129 127 115 95 84 106 111
75 86 78 71 27 32 32 58 47 53 59 57 62 62 68 72 90 115 123 131 124 126 130 157 127 126 140 149 148 152 162 167 161 144 137 137 132 137 130 133 136 148 144 136 120 109 103 95 100
34 23 68 348 3 35 42 53 40 57 71 61 57 64 64 61 49 41 125 150 136 139 150 158 140 148 137 147 150 165 168 176 168 151 144 144 136 143 147 151 153 145 152 149 123 110 110 110 109
358 286 339 14 32 80 38 50 46 70 75 60 55 57 68 54 46 41 67 118 136 163 150 156 155 158 160 155 156 171 175 191 177 167 155 155 151 161 152 154 162 159 160 152 121 119 122 122 105
334 343 50 128 34 33 35 43 46 76 84 69 59 47 50 52 41 34 43 93 163 170 178 167 165 175 181 169 174 180 183 194 191 184 178 171 175 164 161 167 168 172 168 153 150 148 142 122 110
286 325 351 53 5 30 316 312 359 64 52 46 38 38 34 28 29 28 22 34 55 190 212 189 205 183 196 189 185 188 194 203 201 195 190 190 196 183 178 179 185 189 179 172 169 171 167 157 139
239 281 308 318 336 327 303 281 28 312 94 12 17 2 13 4 16 24 23 10 18 277 216 202 218 214 206 208 204 204 198 211 204 208 202 198 208 206 201 187 187 197 193 195 193 196 177 179 139
224 245 307 291 301 337 307 313 271 285 282 17 27 352 353 355 348 348 12 359 357 6 258 215 218 209 210 216 215 218 218 220 214 210 215 215 211 222 213 200 199 199 210 242 248 252 210 245 170
216 221 235 261 280 311 285 220 286 5 259 267 248 277 296 315 315 321 325 304 324 322 345 256 217 203 221 230 222 221 231 227 221 210 216 216 219 222 225 218 211 217 237 249 252 266 228 256 295
230 237 239 247 286 302 291 297 286 294 276 279 270 287 297 279 257 264 283 292 280 278 284 292 256 230 231 228 236 235 231 238 229 212 220 218 222 223 222 229 226 226 231 243 258 270 280 270 273
256 277 266 258 272 285 303 295 248 279 296 300 276 296 274 281 278 264 211 224 264 256 261 262 268 267 258 229 236 249 249 234 233 222 220 219 222 225 227 226 235 236 236 248 258 268 271 273 276
250 255 248 254 261 300 317 291 230 265 269 282 297 238 250 249 253 257 233 198 203 217 241 238 242 255 258 253 255 244 253 246 233 227 222 224 220 223 226 231 240 253 249 249 261 265 276 284 283
247 250 243 244 214 187 36 321 234 252 254 267 265 251 250 290 267 279 200 300 295 218 218 252 241 237 246 246 251 258 258 252 243 231 225 227 231 228 229 230 234 243 258 265 267 271 277 282 289
234 232 225 207 192 130 190 212 230 250 259 263 269 269 272 274 273 279 286 283 287 259 226 262 258 241 230 238 239 242 251 256 252 244 233 230 231 235 234 235 237 242 252 259 270 276 278 282 292
242 246 254 230 190 162 165 209 239 245 255 262 265 268 271 277 286 293 292 284 279 278 282 274 242 239 261 244 244 241 245 244 249 254 246 240 239 234 241 239 241 247 251 261 268 274 275 281 288
244 240 236 229 207 185 209 251 240 251 252 262 269 271 273 275 281 286 287 289 286 278 270 268 273 261 254 262 253 252 246 247 249 248 255 253 246 247 243 245 248 251 257 261 266 267 271 274 282
250 258 248 245 234 215 212 303 259 262 258 257 256 261 265 269 270 267 269 276 276 274 272 269 266 261 248 260 264 256 254 251 247 248 249 252 253 253 251 249 251 253 253 258 262 265 266 267 275
275 259 250 239 234 223 211 247 242 246 243 245 255 256 254 258 261 259 255 259 264 268 267 266 266 265 255 256 264 262 255 256 256 254 247 249 252 254 256 251 250 253 258 260 260 260 261 262 266